EETN

Tallinn/Ulemiste

Airport
ICAO code
EETN
Summary
ICAO Region
EUR
ICAO Territory
Location

Tallinn,

Coordinates
59° 24' 59" N , 24° 47' 57" E
KCC
Metar
EETN 282320Z 21005KT 9999 OVC021 M00/M00 Q1018

Description

International airport serving capital city of Estonia.

Climatology

Humid Continental climate (Köppen climate classification Dfb) - Variable weather patterns and a large seasonal temperature variance. Summers are often warm and humid with frequent thunderstorms and winters can be very cold with frequent snowfall and persistent snow cover.

Runways

Designator Length Width Surface Rops
8/26 3070 45 ASP Yes/Yes

Airport map

Aerial View

SKYbrary Partners:

Safety knowledge contributed by: